Andalusia, AL

11:35 PM CDT on March 22, 2017 (GMT -0500)
Andalusia

Weather History for K79J - July, 2014

Change the Weather History Date:

Monday, July 28, 2014

  Actual Average (KCEW) Record (KCEW)
Temperature  
Mean Temperature 89 °F -  
Max Temperature 99 °F 92 °F 99 °F (2015)
Min Temperature 78 °F 71 °F 65 °F (1979)
Cooling Degree Days 24    
Growing Degree Days 39 (Base 50)    
Moisture  
Dew Point 74 °F    
Average Humidity 70    
Maximum Humidity 85    
Minimum Humidity 42    
Precipitation  
Precipitation 0.14 in - - ()
Sea Level Pressure  
Sea Level Pressure 29.96 in    
Wind  
Wind Speed 6 mph (WNW)    
Max Wind Speed 17 mph    
Max Gust Speed 39 mph    
Visibility 10 miles    
Events Rain , Thunderstorm    
Averages and records for this station are not official NWS values.
T = Trace of Precipitation, MM = Missing Value Source: NWS Daily Summary

Daily Weather History Graph

Daily Weather History Graph

Search for Another Location

Airport or City:

Trip Planner

Search our weather history database for the weather conditions in past years. The results will help you decide how hot, cold, wet, or windy it might be!

Date:

Astronomy

Jul. 28, 2014 Rise Set
Actual Time 5:59 AM CDT 7:44 PM CDT
Civil Twilight 5:33 AM CDT 8:10 PM CDT
Nautical Twilight 5:00 AM CDT 8:42 PM CDT
Astronomical Twilight 4:27 AM CDT 9:16 PM CDT
Moon 7:30 AM CDT (7/28) 8:37 PM CDT (7/28)
Length of Visible Light 14h 37m
Length of Day
13h 44m
Waxing Crescent, 3% of the Moon is Illuminated
Jul 28
Waxing Crescent
Aug 3
First Quarter
Aug 10
Full
Aug 17
Last Quarter
Aug 25
New

Hourly Weather History & Observations

Time (CDT) Temp. Heat Index Dew Point Humidity Pressure Visibility Wind Dir Wind Speed Gust Speed Precip Events Conditions
12:56 AM 82.9 °F 90.2 °F 75.0 °F 77% 29.99 in 10.0 mi West 5.8 mph - N/A   Clear
1:56 AM 82.9 °F 90.8 °F 75.9 °F 79% 29.97 in 10.0 mi WNW 5.8 mph - N/A   Partly Cloudy
2:56 AM 82.0 °F 89.4 °F 75.9 °F 82% 29.97 in 10.0 mi WNW 3.5 mph - N/A   Clear
3:56 AM 82.0 °F 89.4 °F 75.9 °F 82% 29.98 in 10.0 mi West 3.5 mph - N/A   Clear
4:56 AM 81.0 °F 87.3 °F 75.9 °F 85% 29.99 in 10.0 mi WNW 4.6 mph - N/A   Clear
5:56 AM 81.0 °F 87.3 °F 75.9 °F 85% 30.00 in 10.0 mi West 4.6 mph - N/A   Clear
6:56 AM 81.0 °F 87.3 °F 75.9 °F 85% 30.00 in 10.0 mi West 4.6 mph - N/A   Clear
7:56 AM 84.9 °F 94.1 °F 75.9 °F 74% 30.01 in 10.0 mi WNW 6.9 mph - N/A   Clear
8:56 AM 89.1 °F 99.1 °F 75.0 °F 63% 30.01 in 10.0 mi WNW 12.7 mph - N/A   Clear
9:56 AM 91.9 °F 103.9 °F 75.9 °F 59% 30.01 in 10.0 mi NW 10.4 mph 18.4 mph N/A   Clear
10:56 AM 93.9 °F 105.4 °F 75.0 °F 54% 30.00 in 10.0 mi NW 10.4 mph - N/A   Scattered Clouds
11:56 AM 95.0 °F 105.2 °F 73.9 °F 50% 29.99 in 10.0 mi WNW 9.2 mph - N/A   Partly Cloudy
12:56 PM 97.0 °F 107.7 °F 73.9 °F 47% 29.97 in 10.0 mi West 8.1 mph - N/A   Scattered Clouds
1:56 PM 98.1 °F 108.0 °F 73.0 °F 44% 29.94 in 10.0 mi NNW 12.7 mph 20.7 mph N/A   Clear
2:56 PM 99.0 °F 108.5 °F 72.0 °F 42% 29.92 in 10.0 mi West 9.2 mph - N/A   Mostly Cloudy
3:38 PM 93.2 °F 100.5 °F 71.6 °F 49% 29.93 in 10.0 mi West 6.9 mph - N/A Thunderstorm Thunderstorm
3:56 PM 93.9 °F 103.4 °F 73.0 °F 51% 29.94 in 10.0 mi NW 17.3 mph 39.1 mph N/A Thunderstorm Thunderstorm
4:03 PM 84.2 °F 90.9 °F 73.4 °F 70% 29.94 in 7.0 mi West 9.2 mph 39.1 mph 0.13 in Rain , Thunderstorm Heavy Thunderstorms and Rain
4:56 PM 80.1 °F 83.6 °F 71.1 °F 74% 29.93 in 10.0 mi West 3.5 mph - 0.13 in Thunderstorm Thunderstorm
5:41 PM 80.6 °F 85.4 °F 73.4 °F 79% 29.94 in 10.0 mi Calm Calm - 0.01 in   Clear
5:56 PM 82.0 °F 86.7 °F 72.0 °F 71% 29.92 in 10.0 mi Calm Calm - 0.01 in   Clear
6:35 PM 82.4 °F 88.2 °F 73.4 °F 74% 29.93 in 10.0 mi Calm Calm - N/A Thunderstorm Thunderstorm
6:51 PM 82.4 °F 88.2 °F 73.4 °F 74% 29.94 in 10.0 mi Calm Calm - N/A   Clear
6:56 PM 82.0 °F 87.4 °F 73.0 °F 74% 29.93 in 10.0 mi West 4.6 mph - N/A   Clear
7:56 PM 82.0 °F 87.4 °F 73.0 °F 74% 29.93 in 10.0 mi WNW 5.8 mph - N/A   Clear
8:56 PM 80.1 °F 84.2 °F 73.0 °F 79% 29.95 in 10.0 mi NW 4.6 mph - N/A   Clear
9:56 PM 80.1 °F 84.2 °F 73.0 °F 79% 29.96 in 10.0 mi WNW 3.5 mph - N/A   Mostly Cloudy
10:56 PM 79.0 °F - 73.0 °F 82% 29.96 in 10.0 mi NW 4.6 mph - N/A   Scattered Clouds
11:56 PM 78.1 °F - 72.0 °F 81% 29.96 in 10.0 mi NW 3.5 mph - N/A   Clear